Regional Weather Roundup
Issued by NWS

Home | Current Version | Previous Version | Text Only | Print | Product List | Glossary Off
Versions: 1 2 3 4 5 6 7 8 9 10 11 12 13 14 15 16 17 18 19 20 21 22 23 24 25 26 27 28 29 30 31 32 33 34 35 36 37 38 39 40 41 42 43 44 45 46 47 48 49 50

000
ASUS45 KCYS 030410
RWRWY

WYOMING REGIONAL WEATHER ROUNDUP
NATIONAL WEATHER SERVICE CHEYENNE WY
1000 PM MDT TUE JUN 02 2015

NOTE:  "FAIR" INDICATES FEW OR NO CLOUDS BELOW 12,000 FEET
WITH NO SIGNIFICANT WEATHER AND/OR OBSTRUCTIONS TO VISIBILITY.

WYZ001-030500-
...YELLOWSTONE NATIONAL PARK...

CITY           SKY/WX    TMP DP  RH WIND       PRES   REMARKS
LK YELLOWSTONE   N/A     46  36  68 CALM      30.14R
W YELLOWSTONE  NOT AVBL

$$
WYZ002>013-054>058-071-098>099-030500-
...NORTHERN WYOMING...

CITY           SKY/WX    TMP DP  RH WIND       PRES   REMARKS
JACKSON        CLEAR     54  39  58 E5        30.07R
CODY           PTCLDY    57  46  67 N9        29.98R
GREYBULL       PTCLDY    61  50  67 NW3       29.89R
WORLAND        PTCLDY    56  51  84 SW5       29.90R
SHERIDAN       PTCLDY    51  47  86 W3        29.98R
BUFFALO        PTCLDY    52  46  80 W3        30.01R
GILLETTE       CLOUDY    54  49  83 VRB3      29.96R
HULETT         LGT RAIN  55  52  88 E20       29.96F
NEWCASTLE      FAIR      55  45  67 N29G40    29.91F

$$
WYZ014>020-022>026-101>103-030500-
...CENTRAL WYOMING...

CITY           SKY/WX    TMP DP  RH WIND       PRES   REMARKS
BIG PINEY      PTCLDY    53  36  52 NW7       30.09R
PINEDALE       PTCLDY    48  41  76 W8        30.09S
DUBOIS         FAIR      52  34  50 NW5       30.09R
LANDER         PTCLDY    59  44  57 SW9       29.95R
RIVERTON       PTCLDY    59  44  57 N3        29.96R
CASPER         PTCLDY    53  48  83 VRB3      30.00R
DOUGLAS        CLEAR     57  51  80 MISG      29.92R

$$
WYZ021-027>030-104>119-030500-
...SOUTHERN WYOMING...

CITY           SKY/WX    TMP DP  RH WIND       PRES   REMARKS
EVANSTON       PTCLDY    56  37  49 W3        30.10R
KEMMERER       CLEAR     54  30  40 NW9G16    30.10R
FORT BRIDGER   CLEAR     59  36  41 W12       30.12R
ROCK SPRINGS   PTCLDY    59  34  39 W9        30.07R
DIXON          FAIR      52  39  61 E3        30.06R
RAWLINS        PTCLDY    58  36  43 MISG      30.04R
SARATOGA       FAIR      55  30  38 SW9       30.06S
LARAMIE        CLEAR     53  35  50 SE6       30.07R
CHEYENNE       PTCLDY    61  50  67 NW5       30.00R
TORRINGTON     CLEAR     60  49  66 N9        29.87R
PINE BLUFFS    MOCLDY    61  54  77 CALM      29.93R

$$



USA.gov is the U.S. government's official web portal to all federal, state and local government web resources and services.